CUBESAT XI-IV (CO-57)

Last updated on Wed Aug 19 2026 00:03:14 GMT+0000 (Coordinated Universal Time)

1 27848U 03031J 26230.50668447 .00000156 00000+0 87377-4 0 9996 2 27848 98.6794 237.9509 0010056 30.2184 329.9573 14.23648831200245
UTC large
Height (km)
Speed (km/s)
/
Latitude / Longitude
Inclination (degrees)
Orbital Period (minutes)
Azimuth
Elevation
Range (km)
Doppler Factor

Next 0 passes for location: London (51.5072 / 0.1276)

No passes found over London.
CUBESAT XI-IV (CO-57)